[[{"header":{"parameterUnit":"m.s-1","parameterCategory":1,"la1":30.2991,"la2":30.254,"lo1":-89.0895,"lo2":-89.0444,"dy":0.0017,"dx":0.0017,"nx":28,"ny":28,"refTime":"2023-03-13T21:00:00:Z","depth":0,"parameterNumber":2,"parameterNumberName":"U-component_of_WINDS"},"data":[0,0,0,0,0,0,0,0,0,0,0,0,0,0,0,0,0,0,0,0,0,0,0,0,0,0,0,0,0,0,0,0,0,0,0,0,0,0,0,0,0,0,0,0,0,0,0,0,0,0,0,0,0,0,0,0,0,0,-2.9149,-2.915,0,-2.924,-2.9241,-2.9242,-2.9173,-2.917,-2.9167,-2.9164,-2.9259,-2.9264,-2.927,0,0,0,0,0,0,0,0,0,0,0,0,0,-2.8917,-2.8922,-2.9149,-2.915,-2.9151,-2.924,-2.9241,-2.9242,-2.9173,-2.9169,-2.9166,-2.9162,-2.9257,-2.9264,-2.927,0,0,0,0,0,0,0,0,0,0,0,0,0,-2.9014,-2.8923,-2.9149,-2.9127,-2.9126,-2.9239,-2.9241,-2.9242,-2.9174,-2.9169,-2.9165,-2.9161,-2.9255,-2.9263,-2.9271,-2.9411,0,0,-2.9296,-2.9299,0,0,0,0,0,0,0,0,-2.9008,-2.9022,-2.9129,-2.9129,-2.9128,-2.919,-2.9194,-2.9299,-2.9175,-2.9156,-2.9164,-2.9158,-2.924,-2.9249,-2.9276,-2.9415,-2.9419,-2.9296,-2.9301,-2.9305,-2.9307,0,0,0,0,0,0,0,-2.9002,-2.9018,-2.9185,-2.9131,-2.913,-2.9114,-2.9122,-2.9214,-2.9222,-2.9157,-2.9152,-2.9164,-2.9239,-2.9269,-2.9278,-2.9421,-2.9296,-2.9303,-2.9308,-2.9311,-2.9677,-2.9682,0,0,0,0,0,0,-2.8997,-2.9013,-2.9182,-2.9188,-2.9056,-2.9121,-2.9131,-2.9175,-2.9221,-2.9224,-2.9168,-2.916,-2.9257,-2.9269,-2.9281,-2.9446,-2.9305,-2.9312,-2.9317,-2.9672,-2.9678,-2.9684,0,0,0,0,0,0,-2.8992,-2.9013,-2.9178,-2.9099,-2.9119,-2.913,-2.918,-2.9179,-2.9208,-2.9229,-2.923,-2.9196,-2.9254,-2.927,-2.9378,-2.9449,-2.9316,-2.9323,-2.9666,-2.9674,-2.9681,-2.9779,0,0,0,0,0,0,-2.8986,-2.9011,-2.9064,-2.9101,-2.9123,-2.9274,-2.9184,-2.9184,-2.9222,-2.9214,-2.9256,-2.9259,-2.9252,-2.9367,-2.9386,-2.9457,-2.9329,-2.966,-2.967,-2.9679,-2.9769,-2.9789,-2.9805,0,0,0,0,0,-2.8978,-2.9089,-2.9067,-2.9088,-2.919,-2.9279,-2.9292,-2.928,-2.9228,-2.9282,-2.9294,-2.9258,-2.9438,-2.9379,-2.94,-2.9474,-2.9656,-2.9667,-2.9678,-2.9761,-2.9785,-2.9805,0,0,0,0,0,0,-2.9062,-2.9094,-2.907,-2.9196,-2.9235,-2.9267,-2.9334,-2.9306,-2.9361,-2.935,-2.9334,-2.9345,-2.9459,-2.9477,-2.9411,-2.9611,-2.9538,-2.9554,-2.9595,-2.9617,-2.9635,-2.9628,-2.9336,0,0,0,0,0,-2.9095,-2.9164,-2.9188,-2.9298,-2.9318,-2.9323,-2.9361,-2.9349,-2.9389,-2.9405,-2.9426,-2.9466,-2.9532,-2.9576,-2.9637,-2.9772,-2.9779,-2.9833,-2.9851,-2.9866,-2.988,-2.9951,-2.9974,-2.972,-2.972,-2.972,0,0,-2.9165,-2.9191,-2.9235,-2.9315,-2.9344,-2.9415,-2.9337,-2.9417,-2.947,-2.9417,-2.9521,-2.9537,-2.9582,-2.9703,-2.9758,-2.9723,-2.9951,-2.988,-2.9891,-2.9897,-2.9964,-2.9989,-3.001,-2.9727,-2.9726,-2.9725,0,0,-2.9328,-2.9355,-2.9448,-2.9478,-2.9522,-2.9524,-2.9546,-2.9582,-2.959,-2.9694,-2.9655,-2.9718,-2.9832,-2.9865,-2.9896,-3.007,-3.0038,-3.0091,-3.0184,-3.0254,-3.0274,-3.0291,-3.0352,-3.0375,-3.0104,-3.0105,-3.0105,0,-2.9409,-2.9515,-2.95,-2.9582,-2.9618,-2.9572,-2.9666,-2.9696,-2.9758,-2.9784,-2.9743,-2.9883,-2.991,-3.0038,-3.008,-3.0108,-3.0133,-3.0086,-3.0272,-3.0289,-3.0306,-3.0364,-3.0387,-3.0111,-3.011,-3.0109,-3.0109,0,-2.9612,-2.9687,-2.9757,-2.9816,-2.986,-2.9948,-2.9946,-2.9992,-2.9976,-2.9982,-3.0087,-3.0117,-3.0184,-3.0213,-3.0199,-3.0339,-3.0315,-3.0274,-3.02,-3.0336,-3.039,-3.0413,-3.0119,-3.0117,-3.0115,-3.0114,0,0,-2.9832,-2.9881,-2.9907,-2.9933,-2.9977,-3.0034,-3.012,-3.0183,-3.0223,-3.0267,-3.0338,-3.0434,-3.0395,-3.0431,-3.0419,-3.0481,-3.0615,-3.0431,-3.0432,-3.0463,-3.077,-3.0801,-3.0827,-3.0594,-3.0598,-3.0601,-3.0766,0,-2.9997,-3.0145,-3.0132,-3.0272,-3.034,-3.0297,-3.0371,-3.0406,-3.0415,-3.0473,-3.0482,-3.055,-3.0494,-3.0515,-3.0574,-3.0586,-3.0676,-3.0574,-3.0659,-3.0663,-3.0649,-3.0856,-3.0889,-3.1043,-3.0787,-3.0791,-3.0794,0,-3.0209,-3.0259,-3.0405,-3.0437,-3.0465,-3.0532,-3.0589,-3.0646,-3.0684,-3.0686,-3.0725,-3.0703,-3.0789,-3.0714,-3.0831,-3.0762,-3.0796,-3.0807,-3.0813,-3.082,-3.0736,-3.0868,-3.1092,-3.1115,-3.0827,-3.0824,-3.0822,0,-3.0353,-3.0457,-3.0558,-3.0581,-3.0622,-3.067,-3.0689,-3.0723,-3.0762,-3.0811,-3.0836,-3.0896,-3.0928,-3.0975,-3.0969,-3.0915,-3.1089,-3.1013,-3.1092,-3.1092,-3.113,-3.1128,-3.1362,-3.1154,-3.1153,-3.1153,-3.1152,0,-3.0538,-3.0629,-3.0623,-3.0685,-3.0785,-3.077,-3.087,-3.0884,-3.0914,-3.0978,-3.0945,-3.1005,-3.0994,-3.1055,-3.1051,-3.1149,-3.1164,-3.1167,-3.1165,-3.117,-3.117,-3.1192,-3.1181,-3.1159,-3.1158,-3.1156,-3.1155,0,-3.0716,-3.0716,-3.0822,-3.0851,-3.0861,-3.0933,-3.0958,-3.1017,-3.1021,-3.1102,-3.112,-3.1128,-3.1198,-3.1196,-3.1276,-3.1273,-3.1393,-3.1379,-3.1379,-3.1376,-3.1454,-3.1447,-3.1711,-3.1745,-3.1515,-3.1517,-3.1519,0,-3.0834,-3.0902,-3.0938,-3.0978,-3.1,-3.1065,-3.1103,-3.1091,-3.1133,-3.1181,-3.1233,-3.1299,-3.1351,-3.1464,-3.1477,-3.1538,-3.1524,-3.1613,-3.1533,-3.1535,-3.1524,-3.152,-3.1526,-3.1628,-3.1631,-3.1633,-3.1635,0,-3.1042,-3.1038,-3.1094,-3.1151,-3.1197,-3.1241,-3.1282,-3.1316,-3.1308,-3.1357,-3.1427,-3.1467,-3.1547,-3.1613,-3.167,-3.169,-3.1662,-3.166,-3.1681,-3.1686,-3.1683,-3.1684,-3.1421,-3.1654,-3.1652,-3.165,-3.1649,-3.1648,-3.1193,-3.1251,-3.1285,-3.1349,-3.1377,-3.1416,-3.1471,-3.1482,-3.154,-3.1603,-3.1593,-3.1671,-3.1707,-3.1781,-3.1806,-3.1867,-3.1835,-3.1867,-3.1874,-3.1882,-3.189,-3.1674,-3.1877,-3.1877,-3.1876,-3.1876,-3.1875,0,-3.1398,-3.1417,-3.1476,-3.1533,-3.1583,-3.155,-3.1593,-3.1637,-3.1705,-3.1741,-3.1792,-3.1872,-3.1935,-3.1953,-3.2013,-3.2059,-3.2047,-3.2075,-3.2071,-3.2076,-3.1915,-3.189,-3.2083,-3.2083,-3.2083,-3.2083,-3.2083,-3.2083,-3.1511,-3.1607,-3.1607,-3.1717,-3.1736,-3.1811,-3.1838,-3.1873,-3.1901,-3.1991,-3.2043,-3.2053,-3.2082,-3.2144,-3.22,-3.2204,-3.2227,-3.2261,-3.2259,-3.2108,-3.2088,-3.2068,-3.2044,-3.2266,-3.2267,-3.2415,-3.2416,-3.2417]},{"header":{"parameterUnit":"m.s-1","parameterCategory":1,"la1":30.2991,"la2":30.254,"lo1":-89.0895,"lo2":-89.0444,"dy":0.0017,"dx":0.0017,"nx":28,"ny":28,"refTime":"2023-03-13T21:00:00:Z","depth":0,"parameterNumber":3,"parameterNumberName":"V-component_of_WINDS"},"data":[0,0,0,0,0,0,0,0,0,0,0,0,0,0,0,0,0,0,0,0,0,0,0,0,0,0,0,0,0,0,0,0,0,0,0,0,0,0,0,0,0,0,0,0,0,0,0,0,0,0,0,0,0,0,0,0,0,0,-4.8817,-4.8818,0,-4.89,-4.89,-4.8901,-4.8832,-4.8829,-4.8827,-4.8824,-4.8906,-4.8911,-4.8916,0,0,0,0,0,0,0,0,0,0,0,0,0,-4.8596,-4.86,-4.8817,-4.8818,-4.8819,-4.8899,-4.8901,-4.8902,-4.8833,-4.8829,-4.8826,-4.8823,-4.8904,-4.891,-4.8916,0,0,0,0,0,0,0,0,0,0,0,0,0,-4.8687,-4.8602,-4.8817,-4.8795,-4.8793,-4.8899,-4.8901,-4.8902,-4.8834,-4.8829,-4.8825,-4.8821,-4.8902,-4.891,-4.8917,-4.9048,0,0,-4.8939,-4.8942,0,0,0,0,0,0,0,0,-4.8682,-4.8695,-4.8797,-4.8796,-4.8795,-4.8851,-4.8853,-4.8951,-4.8835,-4.8818,-4.8824,-4.8819,-4.8891,-4.8899,-4.8924,-4.9052,-4.9056,-4.894,-4.8944,-4.8947,-4.8949,0,0,0,0,0,0,0,-4.8675,-4.8691,-4.885,-4.8798,-4.8797,-4.8779,-4.8787,-4.8871,-4.8878,-4.8819,-4.8815,-4.8825,-4.889,-4.8917,-4.8925,-4.9057,-4.894,-4.8946,-4.8951,-4.8953,-4.9294,-4.9298,0,0,0,0,0,0,-4.8672,-4.8686,-4.8847,-4.8852,-4.8727,-4.8787,-4.8796,-4.8838,-4.8877,-4.8879,-4.8829,-4.8822,-4.8907,-4.8917,-4.8928,-4.9082,-4.8947,-4.8954,-4.8958,-4.9289,-4.9295,-4.93,0,0,0,0,0,0,-4.8667,-4.8687,-4.8844,-4.8768,-4.8786,-4.8795,-4.8843,-4.8842,-4.8869,-4.8884,-4.8885,-4.8856,-4.8904,-4.8918,-4.9018,-4.9084,-4.8957,-4.8964,-4.9283,-4.9291,-4.9297,-4.9394,0,0,0,0,0,0,-4.8661,-4.8686,-4.8737,-4.877,-4.8791,-4.8934,-4.8847,-4.8846,-4.8882,-4.8873,-4.8909,-4.8911,-4.8901,-4.9008,-4.9026,-4.9092,-4.897,-4.9278,-4.9287,-4.9295,-4.9385,-4.9403,-4.9419,0,0,0,0,0,-4.8654,-4.8761,-4.874,-4.876,-4.8855,-4.8938,-4.895,-4.8937,-4.8888,-4.8938,-4.8947,-4.891,-4.9074,-4.9019,-4.9038,-4.9108,-4.9273,-4.9284,-4.9294,-4.9377,-4.94,-4.9419,0,0,0,0,0,0,-4.8736,-4.8765,-4.8742,-4.8863,-4.8899,-4.8926,-4.899,-4.8962,-4.9012,-4.9002,-4.8983,-4.8992,-4.9097,-4.9113,-4.905,-4.9236,-4.9166,-4.918,-4.9222,-4.9243,-4.926,-4.9254,-4.8976,0,0,0,0,0,-4.8768,-4.8834,-4.8856,-4.896,-4.8979,-4.8982,-4.9018,-4.9005,-4.904,-4.9055,-4.9072,-4.9107,-4.9166,-4.9206,-4.9261,-4.9387,-4.9392,-4.9444,-4.9461,-4.9475,-4.9488,-4.9553,-4.9575,-4.9334,-4.9334,-4.9334,0,0,-4.8835,-4.8859,-4.8902,-4.8977,-4.9003,-4.9071,-4.8995,-4.907,-4.9119,-4.9066,-4.9162,-4.9175,-4.9213,-4.9326,-4.9377,-4.9342,-4.9556,-4.9488,-4.95,-4.9505,-4.9566,-4.9589,-4.9609,-4.9341,-4.934,-4.9339,0,0,-4.8991,-4.9018,-4.9107,-4.9134,-4.9174,-4.9175,-4.9196,-4.9228,-4.9235,-4.9331,-4.9291,-4.9349,-4.9452,-4.948,-4.9508,-4.9673,-4.9639,-4.9691,-4.9781,-4.9844,-4.9863,-4.988,-4.9937,-4.9958,-4.9704,-4.9704,-4.9705,0,-4.907,-4.9171,-4.9156,-4.9233,-4.9266,-4.9221,-4.931,-4.9337,-4.9394,-4.9417,-4.9377,-4.9504,-4.9527,-4.9644,-4.9684,-4.9709,-4.9731,-4.9687,-4.9862,-4.9879,-4.9894,-4.9948,-4.997,-4.971,-4.971,-4.9709,-4.9708,0,-4.9264,-4.9334,-4.9401,-4.9457,-4.9497,-4.958,-4.9576,-4.9619,-4.9602,-4.9606,-4.9703,-4.9728,-4.9787,-4.9814,-4.9798,-4.9929,-4.9906,-4.9865,-4.9794,-4.9923,-4.9973,-4.9994,-4.9719,-4.9717,-4.9715,-4.9713,0,0,-4.9475,-4.952,-4.9545,-4.9568,-4.9608,-4.9662,-4.9742,-4.9799,-4.9836,-4.9875,-4.994,-5.0028,-4.9989,-5.0021,-5.0008,-5.0064,-5.019,-5.0015,-5.0015,-5.0045,-5.0333,-5.0363,-5.0387,-5.0168,-5.0172,-5.0175,-5.0329,0,-4.9632,-4.9772,-4.9759,-4.9891,-4.9954,-4.9912,-4.998,-5.0012,-5.0017,-5.0071,-5.0076,-5.0138,-5.0084,-5.0102,-5.0155,-5.0163,-5.0247,-5.0152,-5.0227,-5.023,-5.0218,-5.0414,-5.0446,-5.059,-5.0349,-5.0352,-5.0355,0,-4.9834,-4.9881,-5.0019,-5.0047,-5.0073,-5.0136,-5.0187,-5.0239,-5.0273,-5.0272,-5.0307,-5.0284,-5.0362,-5.029,-5.0396,-5.0331,-5.0361,-5.0369,-5.0374,-5.038,-5.03,-5.0423,-5.0636,-5.0657,-5.0386,-5.0383,-5.0381,0,-4.9972,-5.007,-5.0164,-5.0186,-5.0222,-5.0266,-5.0283,-5.0313,-5.0348,-5.0392,-5.0413,-5.0466,-5.0495,-5.0535,-5.0525,-5.0474,-5.0633,-5.0561,-5.0634,-5.0634,-5.0669,-5.0667,-5.0888,-5.069,-5.069,-5.069,-5.0689,0,-5.0148,-5.0234,-5.0226,-5.0285,-5.0378,-5.0362,-5.0455,-5.0466,-5.0493,-5.0551,-5.0517,-5.0572,-5.0557,-5.0611,-5.0604,-5.0691,-5.0705,-5.0706,-5.0703,-5.0708,-5.0708,-5.0727,-5.0716,-5.0695,-5.0694,-5.0693,-5.0692,0,-5.0318,-5.0317,-5.0417,-5.0442,-5.0451,-5.0519,-5.054,-5.0593,-5.0596,-5.0669,-5.0686,-5.0689,-5.0751,-5.0745,-5.0815,-5.081,-5.0918,-5.0904,-5.0907,-5.0903,-5.0976,-5.0969,-5.1216,-5.1247,-5.1031,-5.1033,-5.1035,0,-5.043,-5.0495,-5.0527,-5.0564,-5.0584,-5.0644,-5.0678,-5.0665,-5.0702,-5.0744,-5.0792,-5.0851,-5.0897,-5.0997,-5.1005,-5.1057,-5.1042,-5.1126,-5.105,-5.1053,-5.1042,-5.1037,-5.1043,-5.114,-5.1143,-5.1145,-5.1146,0,-5.0628,-5.0624,-5.0676,-5.0728,-5.0771,-5.0811,-5.0847,-5.0879,-5.0868,-5.0912,-5.0974,-5.101,-5.108,-5.1138,-5.1187,-5.1202,-5.1172,-5.117,-5.1189,-5.1195,-5.1194,-5.1194,-5.0946,-5.1164,-5.1162,-5.1161,-5.116,-5.1159,-5.0771,-5.0826,-5.0857,-5.0915,-5.0941,-5.0975,-5.1027,-5.1035,-5.1087,-5.1143,-5.1132,-5.1201,-5.1231,-5.1294,-5.1314,-5.1368,-5.1337,-5.1366,-5.1373,-5.138,-5.1387,-5.1186,-5.1377,-5.1376,-5.1376,-5.1375,-5.1375,0,-5.0966,-5.0983,-5.1037,-5.1089,-5.1135,-5.1103,-5.1141,-5.1181,-5.1243,-5.1273,-5.1319,-5.139,-5.1445,-5.1457,-5.1509,-5.1549,-5.1537,-5.1563,-5.156,-5.1563,-5.1412,-5.139,-5.1573,-5.1573,-5.1573,-5.1573,-5.1573,-5.1573,-5.1072,-5.1163,-5.1162,-5.1263,-5.128,-5.1348,-5.1372,-5.1403,-5.1427,-5.1508,-5.1553,-5.1561,-5.1583,-5.1637,-5.1685,-5.1687,-5.1707,-5.1739,-5.1736,-5.1594,-5.1574,-5.1555,-5.1534,-5.1744,-5.1744,-5.1882,-5.1883,-5.1884]}]]